Vogel Cemetery, Texas, United States
Lat: 29.74N, Lon: 98.4W
Wx Zone: TXZ205
Local Info
Past Weather Observations for Today

NOTE: This archive is for the closest National Weather Service station to Vogel Cemetery. Information may differ from the station used for current weather conditions.

Click here for Long-term Archive

Time Weather Temperature Dewpoint Humidity Pressure Winds Precip Visibility
09:51
Mostly Cloudy
55°F / 13°C 48°F / 9°C 77% 30.12 in
(1020 mb)
NNE 13.8 mph
(NNE 22 kph)
- 10SM
09:29
Overcast
54°F / 12°C 48°F / 9°C 82% 30.09 in
(1019 mb)
NNE 8.1 mph
(NNE 13 kph)
- 10SM
08:51
Overcast
52°F / 11°C 48°F / 9°C 88% 30.09 in
(1019 mb)
NNE 10.4 mph
(NNE 17 kph)
0.00 in
(0.00 mm)
10SM
08:30
Overcast
52°F / 11°C 46°F / 8°C 82% 30.09 in
(1019 mb)
N 15 mph
(N 24 kph)
0.00 in
(0.00 mm)
10SM
08:07
Overcast
Drizzle
52°F / 11°C 48°F / 9°C 88% 30.09 in
(1019 mb)
N 13.8 mph
(N 22 kph)
0.00 in
(0.00 mm)
7SM
07:51
Overcast
Drizzle
52°F / 11°C 48°F / 9°C 88% 30.09 in
(1019 mb)
N 12.7 mph
(N 20 kph)
0.00 in
(0.00 mm)
2SM
07:00
Overcast
Drizzle
52°F / 11°C 48°F / 9°C 88% 30.06 in
(1018 mb)
N 10.4 mph
(N 17 kph)
0.00 in
(0.00 mm)
2SM
06:51
Overcast
Drizzle
52°F / 11°C 48°F / 9°C 88% 30.06 in
(1018 mb)
N 12.7 mph
(N 20 kph)
0.00 in
(0.00 mm)
5SM
05:51
Overcast
Drizzle
52°F / 11°C 48°F / 9°C 88% 30.04 in
(1017 mb)
N 8.1 mph
(N 13 kph)
0.00 in
(0.00 mm)
6SM
04:51
Overcast
Drizzle
52°F / 11°C 50°F / 10°C 94% 30.04 in
(1017 mb)
N 10.4 mph
(N 17 kph)
0.00 in
(0.00 mm)
5SM
03:51
Overcast
Drizzle
54°F / 12°C 50°F / 10°C 88% 30.04 in
(1017 mb)
N 11.5 mph
(N 19 kph)
0.00 in
(0.00 mm)
6SM
02:51
Overcast
Drizzle
54°F / 12°C 50°F / 10°C 88% 30.04 in
(1017 mb)
NE 9.2 mph
(NE 15 kph)
0.00 in
(0.00 mm)
4SM
01:51
Overcast
Light Rain
54°F / 12°C 52°F / 11°C 94% 30.04 in
(1017 mb)
N 10.4 mph
(N 17 kph)
0.03 in
(0.76 mm)
3SM
01:47
Overcast
Light Rain
54°F / 12°C 52°F / 11°C 94% 30.04 in
(1017 mb)
N 9.2 mph
(N 15 kph)
0.03 in
(0.76 mm)
3SM
00:55
Overcast
Light Rain
55°F / 13°C 54°F / 12°C 94% 30.06 in
(1018 mb)
NNE 11.5 mph
(NNE 19 kph)
0.00 in
(0.00 mm)
2SM
00:53
Overcast
Light Rain
55°F / 13°C 54°F / 12°C 94% 30.06 in
(1018 mb)
N 11.5 mph
(N 19 kph)
0.00 in
(0.00 mm)
3SM
00:51
Overcast
Light Rain
55°F / 13°C 54°F / 12°C 94% 30.06 in
(1018 mb)
NNE 13.8 mph
(NNE 22 kph)
0.13 in
(3.30 mm)
2SM
00:48
Overcast
Light Rain
55°F / 13°C 54°F / 12°C 94% 30.06 in
(1018 mb)
NNE 9.2 mph
(NNE 15 kph)
0.13 in
(3.30 mm)
2SM
00:23
Overcast
Rain
55°F / 13°C 54°F / 12°C 94% 30.06 in
(1018 mb)
N 8.1 mph
(N 13 kph)
0.06 in
(1.52 mm)
1SM
00:20
Overcast
Rain
55°F / 13°C 54°F / 12°C 94% 30.06 in
(1018 mb)
N 6.9 mph
(N 11 kph)
0.06 in
(1.52 mm)
1 1/2SM
Time Weather Temperature Dewpoint Humidity Pressure Winds Precip Visibility


Weather for websites

WeatherForYou.com, LLC is not responsible for any damages or problems caused by this service. Current weather conditions are obtained from the closest station including government and personal stations which may have varying degrees of accuracy. Weather forecasts are derived from the NOAA NDFD. Like all things, this site belongs to Jesus Christ... He just trusts me to maintain it. If you have any questions or comments email webmaster@weatherforyou.com

Copyright © 2014, WeatherForYou.com LLC. All rights reserved.